^^
Saratoga-Weather Station Historical Data
Daily Summary for June 4, 2022 Units:  English    Metric   Both
Daily Weekly Monthly Yearly Custom
  High: Low: Average:
Temperature: 36.9 °F 35.1 °F 36 °F
Dew Point: 33.6 °F 31.8 °F 32.7 °F
Humidity: 92% 85% 88%
Wind Speed: 9mph 0mph 2.2mph
Wind Gust: 13mph - -
Wind- - East
Pressure: 30.1 in 29.9 in -
Precipitation: 0 in    
Historical Graphs
 
 
Tabular Data for June 4, 2022
Time Temperature Dew Point Pressure Wind Wind Speed Wind Gust Humidity Rainfall Rate (Hourly) solar
00:04 35.6 °F 33.4 °F 30.1 in Calm   2 mph 92% 0 in 0 W/m2
00:09 35.6 °F 33.4 °F 30.1 in East 4 mph 9 mph 92% 0 in 0 W/m2
00:14 35.6 °F 33.4 °F 30.1 in East 2 mph 4 mph 92% 0 in 0 W/m2
00:19 35.6 °F 33.4 °F 30.1 in East 2 mph 7 mph 92% 0 in 0 W/m2
00:24 35.6 °F 33.4 °F 30.1 in ENE 4 mph 4 mph 92% 0 in 0 W/m2
00:29 35.6 °F 33.4 °F 30.1 in Calm   2 mph 92% 0 in 0 W/m2
00:34 35.6 °F 33.4 °F 30.1 in ENE 4 mph 6 mph 92% 0 in 0 W/m2
00:39 35.6 °F 33.4 °F 30.1 in East 2 mph 2 mph 92% 0 in 0 W/m2
00:44 35.6 °F 33.4 °F 30.1 in Calm   6 mph 92% 0 in 0 W/m2
00:49 35.6 °F 33.4 °F 30.1 in Calm   3 mph 92% 0 in 0 W/m2
00:54 35.6 °F 33.4 °F 30.1 in NE 0.9 mph 3 mph 92% 0 in 0 W/m2
00:59 35.6 °F 33.4 °F 30.1 in ENE 0.9 mph 3 mph 92% 0 in 0 W/m2
01:04 35.6 °F 33.4 °F 30.1 in Calm   2 mph 92% 0 in 0 W/m2
01:09 35.8 °F 33.6 °F 30.1 in Calm   3 mph 92% 0 in 0 W/m2
01:14 35.6 °F 33.4 °F 30.1 in ENE 2 mph 2 mph 92% 0 in 0 W/m2
01:19 35.6 °F 33.3 °F 30.1 in East 2 mph 4 mph 91% 0 in 0 W/m2
01:24 35.8 °F 33.4 °F 30.1 in SE 0.9 mph 3 mph 91% 0 in 0 W/m2
01:29 35.8 °F 33.1 °F 30.1 in NE 2 mph 3 mph 90% 0 in 0 W/m2
01:34 35.8 °F 33.1 °F 30.1 in ENE 2.9 mph 3 mph 90% 0 in 0 W/m2
01:39 35.8 °F 33.1 °F 30.1 in ESE 0.9 mph 3 mph 90% 0 in 0 W/m2
01:44 35.8 °F 32.9 °F 30.1 in ENE 0.9 mph 4 mph 89% 0 in 0 W/m2
01:49 35.8 °F 32.9 °F 30.1 in Calm   4 mph 89% 0 in 0 W/m2
01:54 35.6 °F 32.7 °F 30.1 in ENE 2 mph 2 mph 89% 0 in 0 W/m2
01:59 35.6 °F 32.7 °F 30.1 in ESE 2 mph 2 mph 89% 0 in 0 W/m2
02:04 35.6 °F 32.7 °F 30.1 in ENE 2 mph 6 mph 89% 0 in 0 W/m2
02:09 35.6 °F 32.7 °F 30.1 in East 2 mph 5 mph 89% 0 in 0 W/m2
02:14 35.6 °F 32.7 °F 30.1 in Calm   3 mph 89% 0 in 0 W/m2
02:19 35.6 °F 32.7 °F 30.1 in East 2 mph 4 mph 89% 0 in 0 W/m2
02:24 35.6 °F 32.9 °F 30.1 in NE 2 mph 5 mph 90% 0 in 0 W/m2
02:29 35.6 °F 32.9 °F 30.1 in Calm   2 mph 90% 0 in 0 W/m2
02:34 35.6 °F 32.9 °F 30.1 in East 0.9 mph 5 mph 90% 0 in 0 W/m2
02:39 35.6 °F 32.9 °F 30.1 in ESE 2 mph 2 mph 90% 0 in 0 W/m2
02:44 35.6 °F 32.9 °F 30.1 in Calm   3 mph 90% 0 in 0 W/m2
02:49 35.6 °F 32.9 °F 30.1 in East 4 mph 4 mph 90% 0 in 0 W/m2
02:54 35.4 °F 32.7 °F 30.1 in West 2 mph 7 mph 90% 0 in 0 W/m2
02:59 35.4 °F 32.5 °F 30.1 in ENE 0.9 mph 3 mph 89% 0 in 0 W/m2
03:04 35.4 °F 32.7 °F 30.1 in Calm   4 mph 90% 0 in 0 W/m2
03:09 35.4 °F 32.5 °F 30.1 in NE 2.9 mph 4 mph 89% 0 in 0 W/m2
03:14 35.4 °F 32.5 °F 30.1 in ENE 0.9 mph 3 mph 89% 0 in 0 W/m2
03:19 35.4 °F 32.5 °F 30.1 in ESE 4 mph 6 mph 89% 0 in 0 W/m2
03:24 35.4 °F 32.5 °F 30.1 in Calm   3 mph 89% 0 in 0 W/m2
03:29 35.4 °F 32.5 °F 30.1 in East 2 mph 2 mph 89% 0 in 0 W/m2
03:34 35.4 °F 32.5 °F 30.1 in ENE 2 mph 3 mph 89% 0 in 0 W/m2
03:39 35.4 °F 32.7 °F 30.1 in ESE 0.9 mph 4 mph 90% 0 in 0 W/m2
03:44 35.4 °F 32.7 °F 30.1 in ESE 2.9 mph 3 mph 90% 0 in 0 W/m2
03:49 35.4 °F 32.7 °F 30.1 in ESE 4 mph 6 mph 90% 0 in 0 W/m2
03:54 35.4 °F 32.7 °F 30.1 in ENE 4 mph 8 mph 90% 0 in 0 W/m2
03:59 35.4 °F 32.7 °F 30.1 in ESE 6 mph 7 mph 90% 0 in 0 W/m2
04:04 35.4 °F 32.7 °F 30.1 in ESE 0.9 mph 7 mph 90% 0 in 0 W/m2
04:09 35.4 °F 32.5 °F 30.1 in NE 2 mph 7 mph 89% 0 in 0 W/m2
04:14 35.4 °F 32.5 °F 30.1 in East 2.9 mph 5 mph 89% 0 in 0 W/m2
04:19 35.6 °F 32.7 °F 30.1 in ENE 0.9 mph 3 mph 89% 0 in 0 W/m2
04:24 35.4 °F 32.5 °F 30.1 in ENE 4 mph 4 mph 89% 0 in 0 W/m2
04:29 35.4 °F 32.7 °F 30.1 in East 0.9 mph 6 mph 90% 0 in 0 W/m2
04:34 35.4 °F 32.7 °F 30.1 in Calm   7 mph 90% 0 in 0 W/m2
04:39 35.4 °F 32.7 °F 30.1 in East 0.9 mph 5 mph 90% 0 in 0 W/m2
04:44 35.4 °F 32.7 °F 30.1 in East 4 mph 7 mph 90% 0 in 0 W/m2
04:49 35.4 °F 32.7 °F 30.1 in East 2 mph 4 mph 90% 0 in 0 W/m2
04:54 35.4 °F 32.7 °F 30.1 in Calm   4 mph 90% 0 in 0 W/m2
04:59 35.4 °F 32.7 °F 30.1 in ENE 4.9 mph 7 mph 90% 0 in 0 W/m2
05:04 35.4 °F 32.7 °F 30.1 in East 2 mph 6 mph 90% 0 in 0 W/m2
05:09 35.4 °F 32.7 °F 30.1 in ENE 2 mph 7 mph 90% 0 in 0 W/m2
05:14 35.4 °F 32.7 °F 30.1 in Calm   4 mph 90% 0 in 0 W/m2
05:19 35.4 °F 32.7 °F 30.1 in East 2.9 mph 6 mph 90% 0 in 0 W/m2
05:24 35.4 °F 32.7 °F 30.1 in East 0.9 mph 7 mph 90% 0 in 0 W/m2
05:29 35.4 °F 32.7 °F 30.1 in East 0.9 mph 3 mph 90% 0 in 0 W/m2
05:34 35.4 °F 32.7 °F 30.1 in NE 0.9 mph 8 mph 90% 0 in 0 W/m2
05:39 35.4 °F 32.7 °F 30.1 in East 0.9 mph 6 mph 90% 0 in 0 W/m2
05:44 35.4 °F 32.7 °F 30.1 in ESE 0.9 mph 3 mph 90% 0 in 0 W/m2
05:49 35.4 °F 32.7 °F 30.1 in East 2 mph 4 mph 90% 0 in 0 W/m2
05:54 35.4 °F 32.7 °F 30.1 in East 2 mph 7 mph 90% 0 in 0 W/m2
05:59 35.4 °F 32.7 °F 30.1 in ESE 0.9 mph 5 mph 90% 0 in 0 W/m2
06:04 35.4 °F 32.7 °F 30.1 in ENE 2 mph 9 mph 90% 0 in 0 W/m2
06:09 35.4 °F 32.7 °F 30.1 in East 2 mph 5 mph 90% 0 in 0 W/m2
06:14 35.4 °F 32.7 °F 30.1 in ENE 0.9 mph 7 mph 90% 0 in 0 W/m2
06:19 35.4 °F 32.7 °F 30.1 in ENE 4.9 mph 5 mph 90% 0 in 0 W/m2
06:24 35.4 °F 32.7 °F 30.1 in East 0.9 mph 3 mph 90% 0 in 0 W/m2
06:29 35.4 °F 32.7 °F 30.1 in East 0.9 mph 3 mph 90% 0 in 0 W/m2
06:34 35.4 °F 32.7 °F 30.1 in ENE 4 mph 4 mph 90% 0 in 0 W/m2
06:39 35.4 °F 32.7 °F 30 in East 0.9 mph 4 mph 90% 0 in 0 W/m2
06:44 35.4 °F 32.7 °F 30 in NNW 2 mph 4 mph 90% 0 in 0 W/m2
06:49 35.4 °F 32.7 °F 30 in ENE 2 mph 8 mph 90% 0 in 0 W/m2
06:54 35.4 °F 32.7 °F 30 in Calm   6 mph 90% 0 in 0 W/m2
06:59 35.4 °F 32.7 °F 30 in NE 0.9 mph 8 mph 90% 0 in 0 W/m2
07:04 35.4 °F 32.7 °F 30 in ESE 2.9 mph 4 mph 90% 0 in 0 W/m2
07:09 35.4 °F 32.7 °F 30 in East 0.9 mph 6 mph 90% 0 in 0 W/m2
07:14 35.4 °F 32.7 °F 30 in East 0.9 mph 6 mph 90% 0 in 0 W/m2
07:19 35.4 °F 32.7 °F 30 in ESE 0.9 mph 6 mph 90% 0 in 0 W/m2
07:24 35.4 °F 32.7 °F 30.1 in ENE 2 mph 8 mph 90% 0 in 0 W/m2
07:29 35.4 °F 32.7 °F 30.1 in East 0.9 mph 5 mph 90% 0 in 0 W/m2
07:34 35.4 °F 32.7 °F 30.1 in Calm   3 mph 90% 0 in 0 W/m2
07:39 35.4 °F 32.7 °F 30.1 in East 0.9 mph 2 mph 90% 0 in 0 W/m2
07:44 35.4 °F 32.7 °F 30.1 in East 0.9 mph 2 mph 90% 0 in 0 W/m2
07:49 35.6 °F 32.9 °F 30.1 in NE 2.9 mph 3 mph 90% 0 in 0 W/m2
07:54 35.6 °F 32.9 °F 30.1 in East 2 mph 7 mph 90% 0 in 0 W/m2
07:59 35.6 °F 32.9 °F 30.1 in ENE 2.9 mph 7 mph 90% 0 in 0 W/m2
08:04 35.6 °F 32.9 °F 30.1 in East 4.9 mph 7 mph 90% 0 in 0 W/m2
08:09 35.6 °F 32.7 °F 30.1 in NE 2 mph 8 mph 89% 0 in 0 W/m2
08:14 35.6 °F 32.7 °F 30.1 in ENE 4 mph 11 mph 89% 0 in 0 W/m2
08:19 35.6 °F 32.7 °F 30.1 in ESE 4 mph 9 mph 89% 0 in 0 W/m2
08:24 35.4 °F 32.5 °F 30.1 in SE 6.9 mph 11 mph 89% 0 in 0 W/m2
08:29 35.4 °F 32.5 °F 30.1 in East 0.9 mph 5 mph 89% 0 in 0 W/m2
08:34 35.4 °F 32.5 °F 30.1 in ESE 6.9 mph 9 mph 89% 0 in 0 W/m2
08:39 35.2 °F 32.4 °F 30.1 in ESE 2 mph 2 mph 89% 0 in 0 W/m2
08:44 35.2 °F 32.4 °F 30.1 in ESE 0.9 mph 6 mph 89% 0 in 5 W/m2
08:49 35.2 °F 32.4 °F 30.1 in SE 2.9 mph 9 mph 89% 0 in 5 W/m2
08:54 35.2 °F 32.4 °F 30.1 in ESE 4 mph 9 mph 89% 0 in 9 W/m2
08:59 35.1 °F 32.2 °F 30.1 in ESE 2 mph 5 mph 89% 0 in 9 W/m2
09:04 35.1 °F 32.2 °F 30.1 in NE 2.9 mph 11 mph 89% 0 in 11 W/m2
09:09 35.1 °F 32.4 °F 30.1 in East 0.9 mph 8 mph 90% 0 in 11 W/m2
09:14 35.1 °F 32.2 °F 30.1 in NE 2.9 mph 11 mph 89% 0 in 14 W/m2
09:19 35.2 °F 32.4 °F 30.1 in ESE 2.9 mph 7 mph 89% 0 in 16 W/m2
09:24 35.2 °F 32.5 °F 30.1 in East 0.9 mph 5 mph 90% 0 in 18 W/m2
09:29 35.2 °F 32.4 °F 30.1 in ENE 2 mph 6 mph 89% 0 in 19 W/m2
09:34 35.2 °F 32.4 °F 30.1 in ESE 0.9 mph 4 mph 89% 0 in 21 W/m2
09:39 35.2 °F 32.4 °F 30.1 in ENE 0.9 mph 4 mph 89% 0 in 21 W/m2
09:44 35.2 °F 32.4 °F 30.1 in Calm   3 mph 89% 0 in 23 W/m2
09:49 35.4 °F 32.5 °F 30.1 in Calm   3 mph 89% 0 in 25 W/m2
09:54 35.4 °F 32.5 °F 30.1 in ESE 0.9 mph 4 mph 89% 0 in 28 W/m2
09:59 35.4 °F 32.5 °F 30.1 in East 2 mph 7 mph 89% 0 in 26 W/m2
10:04 35.6 °F 32.7 °F 30.1 in ENE 4 mph 7 mph 89% 0 in 32 W/m2
10:09 35.6 °F 32.7 °F 30.1 in East 2 mph 4 mph 89% 0 in 25 W/m2
10:14 35.8 °F 32.9 °F 30.1 in ESE 2 mph 5 mph 89% 0 in 26 W/m2
10:19 35.8 °F 32.9 °F 30.1 in East 0.9 mph 4 mph 89% 0 in 30 W/m2
10:24 35.8 °F 32.9 °F 30.1 in East 2 mph 10 mph 89% 0 in 30 W/m2
10:29 35.8 °F 32.9 °F 30.1 in ENE 2.9 mph 4 mph 89% 0 in 32 W/m2
10:34 36 °F 33.1 °F 30.1 in ESE 0.9 mph 10 mph 89% 0 in 32 W/m2
10:39 36 °F 33.1 °F 30.1 in ENE 2 mph 8 mph 89% 0 in 30 W/m2
10:44 36 °F 33.1 °F 30.1 in East 6.9 mph 7 mph 89% 0 in 32 W/m2
10:49 36 °F 32.7 °F 30.1 in NE 2 mph 3 mph 88% 0 in 33 W/m2
10:54 36 °F 32.7 °F 30.1 in ESE 2.9 mph 8 mph 88% 0 in 32 W/m2
10:59 36 °F 33.1 °F 30 in ESE 4 mph 8 mph 89% 0 in 32 W/m2
11:04 36 °F 32.7 °F 30 in Calm   8 mph 88% 0 in 32 W/m2
11:09 36 °F 33.1 °F 30 in NE 2 mph 5 mph 89% 0 in 37 W/m2
11:14 36 °F 32.7 °F 30 in ESE 4 mph 8 mph 88% 0 in 40 W/m2
11:19 36.1 °F 32.9 °F 30 in ESE 2 mph 7 mph 88% 0 in 37 W/m2
11:24 36.1 °F 32.9 °F 30 in SE 4 mph 4 mph 88% 0 in 49 W/m2
11:29 36.1 °F 32.9 °F 30 in East 4 mph 7 mph 88% 0 in 56 W/m2
11:34 36.1 °F 32.9 °F 30 in ESE 2 mph 3 mph 88% 0 in 51 W/m2
11:39 36.1 °F 32.9 °F 30 in East 2.9 mph 5 mph 88% 0 in 51 W/m2
11:44 36.3 °F 33.1 °F 30 in ESE 2.9 mph 3 mph 88% 0 in 51 W/m2
11:49 36.3 °F 33.1 °F 30 in East 2.9 mph 8 mph 88% 0 in 44 W/m2
11:54 36.3 °F 33.1 °F 30 in ESE 2 mph 3 mph 88% 0 in 46 W/m2
11:59 36.5 °F 33.3 °F 30 in ESE 2.9 mph 8 mph 88% 0 in 46 W/m2
12:04 36.5 °F 33.1 °F 30 in East 4 mph 10 mph 87% 0 in 47 W/m2
12:09 36.5 °F 33.1 °F 30 in ESE 2.9 mph 11 mph 87% 0 in 53 W/m2
12:14 36.5 °F 33.1 °F 30 in ENE 4 mph 9 mph 87% 0 in 42 W/m2
12:19 36.5 °F 33.1 °F 30 in ESE 6 mph 6 mph 87% 0 in 49 W/m2
12:24 36.5 °F 33.1 °F 30 in SE 2.9 mph 7 mph 87% 0 in 60 W/m2
12:29 36.5 °F 33.1 °F 30 in NE 2.9 mph 9 mph 87% 0 in 56 W/m2
12:34 36.5 °F 33.1 °F 30 in ESE 2 mph 4 mph 87% 0 in 54 W/m2
12:39 36.7 °F 33.3 °F 30 in East 2.9 mph 8 mph 87% 0 in 53 W/m2
12:44 36.7 °F 33.3 °F 30 in ESE 2 mph 6 mph 87% 0 in 56 W/m2
12:49 36.7 °F 33.3 °F 30 in ESE 2 mph 9 mph 87% 0 in 47 W/m2
12:54 36.7 °F 33.3 °F 30 in East 0.9 mph 3 mph 87% 0 in 74 W/m2
12:59 36.7 °F 32.9 °F 30 in East 4.9 mph 6 mph 86% 0 in 70 W/m2
13:04 36.9 °F 33.1 °F 30 in East 2.9 mph 9 mph 86% 0 in 69 W/m2
13:09 36.9 °F 33.1 °F 30 in East 2.9 mph 9 mph 86% 0 in 56 W/m2
13:14 36.9 °F 33.4 °F 30 in SSE 0.9 mph 4 mph 87% 0 in 56 W/m2
13:19 36.9 °F 33.4 °F 30 in ESE 2 mph 4 mph 87% 0 in 47 W/m2
13:24 36.9 °F 33.4 °F 30 in ESE 2 mph 7 mph 87% 0 in 49 W/m2
13:29 36.9 °F 33.1 °F 30 in ESE 4 mph 7 mph 86% 0 in 49 W/m2
13:34 36.9 °F 33.4 °F 30 in ESE 2 mph 4 mph 87% 0 in 51 W/m2
13:39 36.9 °F 33.4 °F 30 in ESE 0.9 mph 4 mph 87% 0 in 49 W/m2
13:44 36.9 °F 33.4 °F 30 in East 4.9 mph 7 mph 87% 0 in 47 W/m2
13:49 36.9 °F 33.4 °F 30 in ESE 2.9 mph 4 mph 87% 0 in 40 W/m2
13:54 36.9 °F 33.4 °F 30 in ESE 0.9 mph 7 mph 87% 0 in 42 W/m2
13:59 36.9 °F 33.4 °F 30 in East 2.9 mph 6 mph 87% 0 in 39 W/m2
14:04 36.9 °F 33.1 °F 30 in ENE 2 mph 10 mph 86% 0 in 37 W/m2
14:09 36.9 °F 33.1 °F 30 in East 2.9 mph 3 mph 86% 0 in 39 W/m2
14:14 36.9 °F 32.7 °F 30 in East 0.9 mph 3 mph 85% 0 in 44 W/m2
14:19 36.7 °F 32.9 °F 30 in East 2.9 mph 4 mph 86% 0 in 39 W/m2
14:24 36.9 °F 33.1 °F 30 in ESE 0.9 mph 7 mph 86% 0 in 42 W/m2
14:29 36.9 °F 33.1 °F 30 in East 2.9 mph 7 mph 86% 0 in 37 W/m2
14:34 36.9 °F 33.1 °F 30 in East 6.9 mph 9 mph 86% 0 in 37 W/m2
14:39 36.9 °F 33.1 °F 30 in East 2 mph 3 mph 86% 0 in 30 W/m2
14:44 36.9 °F 33.1 °F 30 in East 6.9 mph 9 mph 86% 0 in 28 W/m2
14:49 36.9 °F 33.1 °F 30 in ENE 2 mph 3 mph 86% 0 in 25 W/m2
14:54 36.9 °F 33.1 °F 30 in ENE 9 mph 9 mph 86% 0 in 23 W/m2
14:59 36.7 °F 32.5 °F 30 in NE 0.9 mph 6 mph 85% 0 in 25 W/m2
15:04 36.7 °F 32.5 °F 30 in East 0.9 mph 4 mph 85% 0 in 25 W/m2
15:09 36.5 °F 32.4 °F 30 in ESE 2.9 mph 10 mph 85% 0 in 23 W/m2
15:14 36.5 °F 32.4 °F 30 in Calm   5 mph 85% 0 in 21 W/m2
15:19 36.3 °F 32.2 °F 30 in East 2.9 mph 10 mph 85% 0 in 23 W/m2
15:24 36.3 °F 32.5 °F 30 in ENE 0.9 mph 7 mph 86% 0 in 16 W/m2
15:29 36.5 °F 32.7 °F 30 in East 2 mph 8 mph 86% 0 in 14 W/m2
15:34 36.5 °F 32.4 °F 30 in ENE 2.9 mph 3 mph 85% 0 in 12 W/m2
15:39 36.3 °F 32.2 °F 30 in ENE 2.9 mph 8 mph 85% 0 in 11 W/m2
15:44 36.3 °F 32.2 °F 30 in ENE 2 mph 3 mph 85% 0 in 11 W/m2
15:49 36.3 °F 32.2 °F 30 in ENE 2.9 mph 5 mph 85% 0 in 11 W/m2
15:54 36.3 °F 32.2 °F 30 in SE 6.9 mph 7 mph 85% 0 in 9 W/m2
15:59 36.3 °F 32.2 °F 30 in East 2 mph 11 mph 85% 0 in 7 W/m2
16:04 36.1 °F 32 °F 30 in East 4 mph 6 mph 85% 0 in 7 W/m2
16:09 36.1 °F 32 °F 30 in East 2 mph 11 mph 85% 0 in 7 W/m2
16:14 36.1 °F 32 °F 30 in ENE 2 mph 7 mph 85% 0 in 5 W/m2
16:19 36.1 °F 32 °F 30 in East 0.9 mph 9 mph 85% 0 in 5 W/m2
16:24 36.1 °F 32 °F 30 in East 6.9 mph 8 mph 85% 0 in 0 W/m2
16:29 36 °F 31.8 °F 30 in ENE 0.9 mph 2 mph 85% 0 in 0 W/m2
16:34 36 °F 31.8 °F 30 in East 2 mph 8 mph 85% 0 in 0 W/m2
16:40 36 °F 31.8 °F 30 in ESE 2 mph 4 mph 85% 0 in 0 W/m2
16:45 36 °F 31.8 °F 30 in East 0.9 mph 5 mph 85% 0 in 0 W/m2
16:50 36 °F 31.8 °F 30 in East 0.9 mph 4 mph 85% 0 in 0 W/m2
16:55 36 °F 32.2 °F 30 in ESE 2.9 mph 7 mph 86% 0 in 0 W/m2
17:00 36 °F 32.2 °F 30 in East 4.9 mph 7 mph 86% 0 in 0 W/m2
17:05 36 °F 32.2 °F 30 in East 4 mph 4 mph 86% 0 in 0 W/m2
17:10 36 °F 32.2 °F 30 in Calm   3 mph 86% 0 in 0 W/m2
17:15 36 °F 32.2 °F 30 in NE 0.9 mph 4 mph 86% 0 in 0 W/m2
17:20 36 °F 32.2 °F 30 in ESE 4.9 mph 5 mph 86% 0 in 0 W/m2
17:25 36 °F 32.2 °F 30 in ENE 4 mph 10 mph 86% 0 in 0 W/m2
17:30 36 °F 32.2 °F 30 in East 0.9 mph 3 mph 86% 0 in 0 W/m2
17:35 36 °F 32.2 °F 30 in East 0.9 mph 10 mph 86% 0 in 0 W/m2
17:40 36 °F 32.2 °F 30 in East 0.9 mph 4 mph 86% 0 in 0 W/m2
17:45 36 °F 32.2 °F 30 in ESE 0.9 mph 6 mph 86% 0 in 0 W/m2
17:50 36 °F 32.2 °F 30 in Calm   3 mph 86% 0 in 0 W/m2
17:55 36 °F 32.2 °F 30 in Calm   6 mph 86% 0 in 0 W/m2
18:00 36.1 °F 32.4 °F 30 in ENE 0.9 mph 7 mph 86% 0 in 0 W/m2
18:05 36.1 °F 32.4 °F 30 in ESE 2 mph 9 mph 86% 0 in 0 W/m2
18:10 36.1 °F 32.4 °F 30 in ENE 0.9 mph 7 mph 86% 0 in 0 W/m2
18:15 36.1 °F 32.4 °F 30 in SE 6.9 mph 7 mph 86% 0 in 0 W/m2
18:20 36.1 °F 32.4 °F 30 in East 2 mph 4 mph 86% 0 in 0 W/m2
18:25 36.1 °F 32.4 °F 30 in East 0.9 mph 8 mph 86% 0 in 0 W/m2
18:30 36.1 °F 32.4 °F 30 in ENE 2 mph 6 mph 86% 0 in 0 W/m2
18:35 36.1 °F 32.4 °F 30 in ESE 2.9 mph 8 mph 86% 0 in 0 W/m2
18:40 36.1 °F 32.4 °F 30 in ENE 0.9 mph 4 mph 86% 0 in 0 W/m2
18:45 36.1 °F 32.4 °F 30 in East 2 mph 8 mph 86% 0 in 0 W/m2
18:50 36.1 °F 32.4 °F 30 in ENE 0.9 mph 3 mph 86% 0 in 0 W/m2
18:55 36.1 °F 32.4 °F 30 in ESE 0.9 mph 3 mph 86% 0 in 0 W/m2
19:00 36.1 °F 32.4 °F 30 in Calm   2 mph 86% 0 in 0 W/m2
19:05 36.1 °F 32.4 °F 30 in ENE 0.9 mph 3 mph 86% 0 in 0 W/m2
19:10 36 °F 32.2 °F 30 in East 2 mph 5 mph 86% 0 in 0 W/m2
19:15 36 °F 32.2 °F 30 in East 4 mph 5 mph 86% 0 in 0 W/m2
19:20 36 °F 32.2 °F 30 in ENE 4 mph 4 mph 86% 0 in 0 W/m2
19:25 36 °F 32.2 °F 30 in ESE 0.9 mph 4 mph 86% 0 in 0 W/m2
19:30 36 °F 32.2 °F 30 in East 2 mph 3 mph 86% 0 in 0 W/m2
19:35 36 °F 32.2 °F 30 in Calm   1 mph 86% 0 in 0 W/m2
19:40 36 °F 32.2 °F 30 in ENE 2.9 mph 4 mph 86% 0 in 0 W/m2
19:45 36 °F 32.2 °F 30 in ENE 0.9 mph 4 mph 86% 0 in 0 W/m2
19:50 36 °F 32.2 °F 30 in Calm   3 mph 86% 0 in 0 W/m2
19:55 36 °F 32.2 °F 30 in East 4 mph 9 mph 86% 0 in 0 W/m2
20:00 36 °F 32.2 °F 30 in East 0.9 mph 3 mph 86% 0 in 0 W/m2
20:05 36 °F 32.5 °F 30 in East 0.9 mph 9 mph 87% 0 in 0 W/m2
20:10 36 °F 32.2 °F 30 in East 2.9 mph 3 mph 86% 0 in 0 W/m2
20:15 36 °F 32.2 °F 30 in East 0.9 mph 3 mph 86% 0 in 0 W/m2
20:20 36.1 °F 32.4 °F 30 in ENE 2 mph 5 mph 86% 0 in 0 W/m2
20:25 36.1 °F 32.4 °F 30 in East 0.9 mph 5 mph 86% 0 in 0 W/m2
20:30 36.1 °F 32.4 °F 30 in East 0.9 mph 3 mph 86% 0 in 0 W/m2
20:35 36.1 °F 32.4 °F 30 in ESE 6.9 mph 9 mph 86% 0 in 0 W/m2
20:40 36.1 °F 32.4 °F 30 in ESE 6.9 mph 7 mph 86% 0 in 0 W/m2
20:45 36.1 °F 32.4 °F 30 in ENE 4 mph 9 mph 86% 0 in 0 W/m2
20:50 36.1 °F 32.4 °F 30 in ENE 2 mph 4 mph 86% 0 in 0 W/m2
20:55 36.1 °F 32.4 °F 30 in Calm   6 mph 86% 0 in 0 W/m2
21:00 36.3 °F 32.9 °F 30 in East 0.9 mph 2 mph 87% 0 in 0 W/m2
21:05 36.3 °F 32.5 °F 30 in ESE 2.9 mph 7 mph 86% 0 in 0 W/m2
21:10 36.3 °F 32.5 °F 30 in ESE 2.9 mph 6 mph 86% 0 in 0 W/m2
21:15 36.3 °F 32.5 °F 30 in ESE 0.9 mph 7 mph 86% 0 in 0 W/m2
21:20 36.3 °F 32.5 °F 30 in ENE 4.9 mph 8 mph 86% 0 in 0 W/m2
21:25 36.5 °F 32.7 °F 30 in NE 4 mph 4 mph 86% 0 in 0 W/m2
21:30 36.5 °F 32.7 °F 30 in ENE 0.9 mph 10 mph 86% 0 in 0 W/m2
21:35 36.5 °F 32.4 °F 30 in ESE 2 mph 3 mph 85% 0 in 0 W/m2
21:40 36.5 °F 32.4 °F 30 in ENE 0.9 mph 10 mph 85% 0 in 0 W/m2
21:45 36.5 °F 32.4 °F 30 in ESE 2.9 mph 8 mph 85% 0 in 0 W/m2
21:50 36.5 °F 32.4 °F 30 in Calm   4 mph 85% 0 in 0 W/m2
21:55 36.5 °F 32.4 °F 30 in ESE 4 mph 8 mph 85% 0 in 0 W/m2
22:00 36.5 °F 32.4 °F 30 in East 0.9 mph 9 mph 85% 0 in 0 W/m2
22:05 36.5 °F 32.4 °F 30 in East 8.1 mph 9 mph 85% 0 in 0 W/m2
22:10 36.5 °F 32.4 °F 30 in ESE 0.9 mph 6 mph 85% 0 in 0 W/m2
22:15 36.5 °F 32.4 °F 30 in ENE 2 mph 9 mph 85% 0 in 0 W/m2
22:20 36.5 °F 32.4 °F 30 in East 6.9 mph 10 mph 85% 0 in 0 W/m2
22:25 36.5 °F 32.4 °F 30 in ESE 6 mph 11 mph 85% 0 in 0 W/m2
22:30 36.5 °F 32.4 °F 30 in East 2 mph 4 mph 85% 0 in 0 W/m2
22:35 36.5 °F 32.4 °F 30 in ESE 0.9 mph 4 mph 85% 0 in 0 W/m2
22:40 36.5 °F 32.4 °F 30 in ENE 0.9 mph 5 mph 85% 0 in 0 W/m2
22:45 36.3 °F 32.2 °F 29.9 in ENE 6 mph 9 mph 85% 0 in 0 W/m2
22:50 36.3 °F 32.2 °F 29.9 in East 0.9 mph 2 mph 85% 0 in 0 W/m2
22:55 36.3 °F 32.2 °F 29.9 in ENE 0.9 mph 9 mph 85% 0 in 0 W/m2
23:00 36.3 °F 32.2 °F 30 in East 2 mph 9 mph 85% 0 in 0 W/m2
23:05 36.3 °F 32.2 °F 29.9 in ESE 2 mph 3 mph 85% 0 in 0 W/m2
23:10 36.3 °F 32.2 °F 29.9 in ESE 4 mph 9 mph 85% 0 in 0 W/m2
23:15 36.3 °F 32.2 °F 29.9 in ESE 2 mph 11 mph 85% 0 in 0 W/m2
23:20 36.3 °F 32.2 °F 29.9 in NE 6.9 mph 7 mph 85% 0 in 0 W/m2
23:25 36.3 °F 32.2 °F 29.9 in ESE 6 mph 8 mph 85% 0 in 0 W/m2
23:30 36.3 °F 32.2 °F 29.9 in SE 2.9 mph 9 mph 85% 0 in 0 W/m2
23:35 36.3 °F 32.5 °F 29.9 in ESE 4 mph 11 mph 86% 0 in 0 W/m2
23:40 36.3 °F 32.5 °F 29.9 in SE 4 mph 13 mph 86% 0 in 0 W/m2
23:45 36.1 °F 32.4 °F 29.9 in ENE 2 mph 10 mph 86% 0 in 0 W/m2
23:50 36.1 °F 32.4 °F 29.9 in NE 4 mph 13 mph 86% 0 in 0 W/m2
23:55 36.1 °F 32.4 °F 29.9 in East 2.9 mph 6 mph 86% 0 in 0 W/m2
Juneau County Weather
Compliments of Weather Underground - 4 mb